{"data":{"norad_id":62524,"intl_designator":"2025-004P","name":"STARLINK-32748","alt_names":[],"object_type":"PAYLOAD","status":"ACTIVE","operator":null,"country":"US","launch_date":"2025-01-08","launch_site_code":"AFETR","launch_vehicle":null,"mission":null,"orbit_class":"UNKNOWN","rcs_meters":null,"size_class":null,"mass_kg":null,"dimensions":null,"purposes":["comms"],"wikipedia_slug":null,"has_3d_model":false,"image_url":null,"decayed_at":null,"tle_current":{"epoch":"2026-05-25T00:21:42.528384Z","epoch_age_seconds":67138,"freshness":"FRESH","line1":"1 62524U 25004P   26145.01507556  .00022625  00000+0  82879-3 0  9990","line2":"2 62524  42.9994 148.6497 0001452 269.9343  90.1343 15.27594715 78130","mean_motion":15.27594715,"eccentricity":0.0001452,"inclination_deg":42.9994,"raan_deg":148.6497,"arg_perigee_deg":269.9343,"mean_anomaly_deg":90.1343,"bstar":0.00082879,"rev_number":7813,"period_min":94.265840661801,"perigee_km":482.00879656627,"apogee_km":484.00127221305,"semimajor_km":6861.1420343897,"source":"CELESTRAK","updated_at":"2026-05-25T13:38:19.704538Z"}}}